www.pogodaiklimat.ru

Погода и климат >> Архив погоды >> Мьянма >> Проме


ПОГОДА в Проме

  • Прогноз погоды в Проме
  • Монитор погоды в Проме

АРХИВ ПОГОДЫ в Проме

Время (UTC), дата Ветер
(напр.,м/с)
 
Видим.   Явления Облачность Т
(С)
Тd
(С)
f
(%)
Тe
(С)
Тes
(С)
Комфортность P
(гПа)
Po
(гПа)
Тmin
(С)
Tmax
(С)
R
(мм)
R24
(мм)
S
(см)
00 9.06 штиль 0 6000 м 5/4 600 м
[Cu Sc Ci fib]
+27.0 +24.0 84 +37 +38 очень
душно
1003.7 996.9 +25.4
06 9.06 ЮЗ 3 9000 м 8/6 600 м
[Cb cap Ci fib]
+34.0 +25.7 62 +49 +56 опасность
перегрева
1003.4 996.7
09 9.06 ЮЗ 3 8000 м 10/6 600 м
[Cb cap Ac As]
+34.0 +25.7 62 +49 +50 опасность
перегрева
1001.3 994.6
12 9.06 штиль 0 6000 м {дождь} 10/6 600 м
[Cb cap Ac As]
+28.0 +26.8 93 +44 +44 опасность
перегрева
1001.7 994.9 +35.0 11
00 10.06 штиль 0 6000 м 10/6 600 м
[Cb cap Ac trans Ci fib]
+26.0 +24.6 92 +37 +37 очень
душно
1002.7 995.9 +24.8
03 10.06 штиль 0 9000 м 10/6 600 м
[Cb cap Ac trans Ci fib]
+28.0 +25.0 84 +40 +44 очень
душно
1003.6 996.8
06 10.06 штиль 0 6000 м 10/6 600 м
[Cb cap Ac trans Ci fib]
+31.6 +24.8 67 +45 +51 опасность
перегрева
1003.0 996.3
09 10.06 штиль 0 9000 м 10/6 600 м
[Cb cap Ac trans Ci fib]
+35.0 +24.0 53 +47 +49 опасность
перегрева
1000.2 993.6
12 10.06 штиль 0 6000 м 10/6 600 м
[Cb cap Ac trans Ci fib]
+32.0 +24.8 66 +45 +45 опасность
перегрева
999.7 993.0 +35.2
00 11.06 штиль 0 6000 м 10/6 600 м
[Cb cap Ac trans Ci fib]
+27.0 +24.0 84 +37 +38 очень
душно
1001.2 994.4 +25.4
03 11.06 штиль 0 8000 м 10/6 600 м
[Cb cap Ac trans Ci fib]
+29.0 +24.8 78 +41 +45 опасность
перегрева
1001.9 995.1
06 11.06 штиль 0 9000 м 10/6 600 м
[Cb cap Ac trans Ci fib]
+29.4 +25.9 81 +44 +50 опасность
перегрева
1002.3 995.5
09 11.06 ЮЗ 2 8000 м 10/6 600 м
[Cb cap Ac trans Ci fib]
+32.4 +24.8 64 +45 +48 опасность
перегрева
999.4 992.7
12 11.06 СЗ 2 6000 м 8/5 600 м
[Cb cap Ci fib]
+30.4 +23.9 68 +42 +42 опасность
перегрева
999.4 992.7 +33.0
03 12.06 штиль 0 8000 м 9/6 600 м
[Cb cap Ac trans Ci fib]
+29.0 +24.8 78 +41 +46 опасность
перегрева
1002.4 995.6
06 12.06 штиль 0 6000 м слаб. дождь {морось} 10/6 600 м
[Cb cap Ac As]
+27.5 +26.8 96 +43 +46 опасность
перегрева
1001.4 994.6
09 12.06 Ю 2 8000 м дождь {морось} 10/6 600 м
[Cb cap Ac As]
+27.0 +25.6 92 +40 +41 очень
душно
999.7 992.9
12 12.06 штиль 0 6000 м 9/6 600 м
[Cb cap Ac trans]
+27.5 +26.8 96 +43 +43 опасность
перегрева
999.4 992.6 +30.5 41
00 13.06 штиль 0 6000 м {дождь} 10/6 300 м
[Cb cap Ac As]
+25.8 +24.6 93 +36 +36 очень
душно
1000.0 993.2 +24.8 23
03 13.06 штиль 0 7000 м слаб. дождь 10/6 300 м
[Cb cap Ac As]
+27.0 +25.6 92 +40 +42 очень
душно
1001.8 995.0
06 13.06 штиль 0 7000 м слаб. дождь {морось} 10/6 300 м
[Cb cap Ac As]
+27.5 +25.0 86 +39 +43 очень
душно
1001.5 994.7
09 13.06 штиль 0 7000 м {дождь} 10/6 600 м
[Cb cap Ac As]
+29.0 +25.9 83 +43 +45 опасность
перегрева
1000.2 993.4
12 13.06 штиль 0 6000 м 10/6 600 м
[Cb cap Ac As]
+28.0 +25.0 84 +40 +40 очень
душно
999.5 992.7 +30.0 12
00 14.06 штиль 0 6000 м {дождь} 10/6 300 м
[Cb cap Ac As]
+26.0 +24.6 92 +37 +37 очень
душно
1001.9 995.1 +24.4 9
03 14.06 штиль 0 8000 м 10/6 600 м
[Cb cap Ac As]
+27.0 +25.6 92 +40 +42 очень
душно
1004.1 997.3
06 14.06 ЮЗ 1 9000 м 10/6 600 м
[Cb cap Ac trans Ci fib]
+31.0 +25.4 72 +45 +50 опасность
перегрева
1003.2 996.5
09 14.06 штиль 0 9000 м 10/6 600 м
[Cb cap Ac trans Ci fib]
+32.0 +26.5 73 +49 +52 опасность
перегрева
1000.1 993.4
12 14.06 ЮЗ 2 6000 м {гроза, дождь} 10/6 600 м
[Cb cap Ac As]
+26.0 +26.0 100 +39 +39 очень
душно
1001.5 994.7 +32.2 45
00 15.06 штиль 0 6000 м 10/6 600 м
[Cb cap Ac trans Ci fib]
+26.4 +26.0 98 +39 +40 очень
душно
1002.2 995.4 +24.0
03 15.06 штиль 0 8000 м 10/6 600 м
[Cb cap Ac trans Ci fib]
+28.6 +25.4 83 +42 +46 опасность
перегрева
1003.0 996.2
06 15.06 штиль 0 9000 м 8/5 600 м
[Cb cap Ci fib]
+32.0 +26.5 73 +49 +62 опасность
перегрева
1002.6 995.9
09 15.06 ЮЗ 2 8000 м {дождь} 10/6 600 м
[Cb cap Ac trans Ci fib]
+28.4 +26.8 91 +44 +46 опасность
перегрева
1001.3 994.5
12 15.06 ЮЗ 3 6000 м 10/6 600 м
[Cb cap Ac trans Ci fib]
+29.8 +23.9 71 +41 +41 опасность
перегрева
1000.6 993.9 +32.0 4

 

Местоположение метеостанции Проме (Мьянма): широта 18.80 долгота 95.22 высота над уровнем моря 60 м.

В архиве по умолчанию представлена погода в Проме за последнюю неделю. Архивные данные за месяц целиком и за предыдущие месяцы, начиная с января 2011 года, Вы можете получить, выбрав интересующий диапазон дат из раскрывающегося списка и нажав кнопку "Ввод!".


*Определитесь, кто Вы:
робот инопланетянин человек

Внимание! Время в таблицах - всемирное. Для получения местного времени необходимо прибавить поправку, которая равна 6.5 ч.

Смотрите также архив погоды в соседних городах и на ближайших метеорологических станциях:

Погода в Тандве (Мьянма) (99 км)
Погода в Хинтаде (Мьянма) (127 км)
Погода в Таунгу (Мьянма) (132 км)
Погода в Пьинмане (Мьянма) (147 км)
Погода в Гва (Мьянма) (152 км)
Погода в Магуэе (Мьянма) (153 км)
Погода в Минбу (Мьянма) (156 км)
Погода в Манаунге (Мьянма) (157 км)
Погода в Кяокпю (Мьянма) (189 км)
Погода в Хмавби (Мьянма) (207 км)

Пояснения к столбцам:

Ветер - указаны скорость ветра в м/с - средняя за 10 мин, порывы в срок и между сроками (в фигурных скобках) и направление, откуда дует ветер: С - северный, СВ - северо-восточный, В - восточный, ЮВ - юго-восточный, Ю - южный, ЮЗ - юго-западный, З - западный, СЗ - северо-западный.
Видимость - горизонтальная дальность видимости в метрах или километрах. При видимости от 1 до 10 км при отсутствии осадков обычно наблюдается дымка, при ухудшении видимости до 1 км и менее - туман. В сухую погоду видимость может ухудшаться дымом, пылью или мглою.
Явления - указаны атмосферные явления, наблюдавшиеся в срок или в последний час перед сроком; фигурными скобками обозначены явления, наблюдавшиеся между сроками (за 1-3 часа до срока); квадратными скобками обозначены град или гололедные отложения с указанием их диаметра в мм.
Облачность - указаны через наклонную черту общая и нижняя облачность в баллах и высота нижней границы облаков в метрах; квадратными скобками обозначены формы облаков: Ci - перистые, Cs - перисто-слоистые, Cc - перисто-кучевые, Ac - высококучевые, As - высокослоистые, Sc - слоисто-кучевые, Ns - слоисто-дождевые, Cu - кучевые, Cb - кучево-дождевые. Подробнее классификацию облаков см. в Атласе облаков (PDF).
T - Температура воздуха - температура, измеренная на высоте 2 м над землей.
Td - Температура точки росы - температура, при понижении до которой содержащийся в воздухе водяной пар достигнет насыщения.
f - Относительная влажность воздуха - влажноcть воздуха, измеренная на высоте 2 м над землей.
Te - Эффективная температура - температура, которую ощущает одетый по сезону человек в тени. Характеристика душности погоды. При расчете учитывается влияние влажности воздуха и скорости ветра на теплоощущения человека.
Tes - Эффективная температура на солнце - температура, которую ощущает человек, с поправкой на солнечный нагрев. Характеристика знойности погоды. Зависит от высоты солнца над горизонтом, облачности и скорости ветра. Ночью, в пасмурную погоду, а также при ветре 12 м/с и более поправка равна нулю.
P - Атмосферное давление - приведенное к уровню моря атмосферное давление.
Po - Атмосферное давление - измеренное на уровне метеостанции атмосферное давление.
Tmin - Минимальная температура - минимум температуры воздуха на высоте 2 м над землей.
Tmax - Максимальная температура - максимум температуры воздуха на высоте 2 м над землей.
R - Количество осадков - Количество выпавших осадков за период времени, мм. При наведении курсора мыши на число - период времени, за который выпало указанное количество осадков.
R24 - Количество осадков - Количество выпавших осадков за 24 часа, мм.
S - Снежный покров - Высота снежного покрова, см. При наведении курсора мыши на число - состояние снежного покрова и степень покрытия местности в баллах.